Location: Allaines
(49.9632°N, 2.9458°E)
Time: 04:03:46
(UTC+00:00)

Cosmos 1140 Rocket - Pass Details

Date: 09 April 2020
Orbit: 745 x 767 km, 74.1° (Epoch: 06 June)

Event Time Altitude Azimuth Distance (km) Brightness Sun altitude
Rises 20:05:12 0° 207° (SSW) 3,202 6.7 -14.4°
Reaches altitude 10° 20:07:34 10° 209° (SSW) 2,278 5.9 -14.7°
Maximum altitude 20:12:44 74° 295° (WNW) 786 3.7 -15.4°
Drops below altitude 10° 20:17:54 10° 21° (NNE) 2,279 6.1 -16.1°
Sets 20:20:16 0° 23° (NNE) 3,205 6.9 -16.4°
